#timestamp,LO_Frequency,Hit,StdDev 
1667890815.5,286046999.1,N
1667890835.3,286046999.0,N
1667890855.1,286046998.4,N
1667890875.9,286046996.9,N
1667890895.7,286046999.2,N
1667890915.5,286046998.8,N
1667890935.4,286046999.3,N
1667890955.2,286046998.6,N
1667890975.1,286046998.7,N
1667890976.0,286046998.7,N
1667890995.8,286046998.4,N
1667891015.6,286046999.6,N
1667891035.5,286046996.6,N
1667891055.3,286046998.4,N
1667891075.1,286046998.1,N
1667891095.9,286047000.8,N
1667891115.7,286047001.1,N
1667891135.6,286047000.6,N
1667891155.4,286047000.8,N
1667891175.2,286047000.7,N
1667891195.1,286047001.2,N
1667891196.0,286047001.2,N
1667891215.8,286046998.6,N
1667891235.6,286047001.0,N
1667891255.5,286046998.6,N
1667891275.3,286046998.6,N
1667891295.2,286047000.6,N
1667891315.9,286046999.8,N
1667891335.7,286046998.1,N
1667891355.6,286047000.6,N
1667891375.4,286046999.8,N
1667891395.2,286047002.3,N
1667891415.1,286047000.0,N
1667891416.0,286047000.0,N
1667891435.8,286047000.8,N
1667891455.7,286046998.1,N
1667891475.5,286047001.1,N
1667891495.3,286047000.6,N
1667891515.2,286047000.7,N
1667891535.0,286047000.9,N
1667891535.9,286047000.9,N
1667891555.8,286047002.4,N
1667891575.6,286046998.6,N
1667891595.4,286046999.1,N
1667891615.3,286046999.0,N
1667891635.1,286047000.5,N
1667891655.8,286047002.8,N
1667891675.7,286047000.0,N
1667891695.5,286047002.1,N
1667891715.4,286047001.8,N
1667891735.2,286047001.4,N
1667891755.0,286046999.7,N
1667891755.9,286046999.7,N
1667891775.8,286046999.8,N
1667891795.6,286047002.8,N
1667891815.4,286047001.3,N
1667891835.3,286047002.6,N
1667891855.1,286047001.7,N
1667891875.9,286047001.4,N
1667891895.7,286047003.8,Y
1667891915.5,286047003.9,P
1667891935.4,286047001.7,N
1667891955.2,286047004.0,P
1667891975.0,286047004.4,Y
1667891976.0,286047004.4,P
1667891995.8,286047000.1,N
1667892015.6,286047001.0,N
1667892035.5,286046998.2,N
1667892055.3,286047001.0,N
1667892075.1,286047000.5,N
1667892095.9,286047000.5,N
1667892115.7,286046998.2,N
1667892135.6,286046999.4,N
1667892155.4,286046998.3,N
1667892175.2,286046998.5,N
1667892195.1,286046998.1,N
1667892196.0,286046998.1,N
1667892215.8,286046999.8,N
1667892235.6,286047000.4,N
1667892255.5,286046998.6,N
1667892275.3,286046998.1,N
1667892295.2,286047000.9,N
1667892315.9,286046998.4,N
1667892335.7,286046998.1,N
1667892355.6,286047000.0,N
1667892375.4,286047001.0,N
1667892395.2,286047000.6,N
1667892415.1,286046999.9,N
1667892416.0,286046999.9,N
1667892435.8,286046998.6,N
1667892455.7,286046998.2,N
1667892475.5,286046998.4,N
1667892495.3,286046998.4,N
1667892515.2,286046999.1,N
1667892535.9,286046996.8,N
1667892555.7,286046999.2,N
1667892575.6,286046998.8,N
1667892595.4,286046998.2,N
1667892615.2,286046999.0,N
1667892635.1,286046998.6,N
1667892636.0,286046998.6,N
1667892655.8,286047001.0,N
1667892675.7,286047001.2,N
1667892695.5,286047001.0,N
1667892715.3,286047000.8,N
1667892735.2,286046999.7,N
1667892755.0,286047000.1,N
1667892755.9,286047000.1,N
1667892775.8,286046999.8,N
1667892795.6,286047000.2,N
1667892815.4,286047001.0,N
1667892835.3,286047011.9,Y
1667892855.1,286047002.7,P
1667892875.8,286047001.8,N
1667892895.7,286047002.6,N
1667892915.5,286047000.3,N
1667892935.4,286047000.1,N
1667892955.2,286046999.9,N
1667892975.0,286047000.2,N
1667892975.9,286047000.2,N
1667892995.8,286047000.3,N
1667893015.6,286046998.4,N
1667893035.4,286047001.1,N
1667893055.3,286046999.9,N
1667893075.1,286046998.5,N
1667893095.9,286047000.0,N
1667893115.7,286047000.5,N
1667893135.5,286047000.9,N
1667893155.4,286047000.5,N
1667893175.2,286047000.7,N
1667893195.0,286047000.3,N
1667893195.9,286047000.3,N
1667893215.8,286047000.2,N
1667893235.6,286046998.7,N
1667893255.5,286046997.3,N
1667893275.3,286046994.9,Y
1667893295.1,286046995.8,P
1667893315.9,286046997.5,N
1667893335.7,286046997.7,N
1667893355.6,286046998.8,N
1667893375.4,286046998.4,N
1667893395.2,286047000.4,N
1667893415.1,286047000.3,N
1667893416.0,286047000.3,N
1667893435.8,286047000.4,N
1667893455.6,286047000.2,N
1667893475.5,286047000.2,N
1667893495.3,286047002.5,N
1667893515.2,286047002.8,N
1667893535.9,286047002.8,N
1667893555.7,286047001.0,N
1667893575.6,286046998.1,N
1667893595.4,286047001.1,N
1667893615.3,286046999.0,N
1667893635.1,286046997.2,N
1667893655.8,286046998.3,N
1667893675.7,286046998.6,N
1667893695.5,286046998.6,N
1667893715.4,286047000.9,N
1667893735.2,286046999.8,N
1667893755.0,286047000.0,N
1667893755.9,286047000.0,N
1667893775.8,286047002.4,N
1667893795.6,286047004.4,N
1667893815.5,286047003.7,N
1667893835.3,286047005.8,N
1667893855.1,286047005.1,N
1667893875.9,286047004.8,N
1667893895.7,286047004.5,N
1667893915.5,286047005.3,N
1667893935.4,286047003.0,N
1667893955.2,286047002.9,N
1667893975.1,286047003.1,N
1667893976.0,286047003.1,N
1667893995.8,286047003.8,N
1667894015.6,286047003.6,N
1667894035.5,286047003.7,N
1667894055.3,286047003.4,N
1667894075.2,286047005.5,N
1667894095.9,286047004.8,N
1667894115.7,286047005.1,N
1667894135.6,286047003.4,N
1667894155.4,286047003.4,N
1667894175.2,286047005.9,N
1667894195.1,286047005.5,N
1667894196.0,286047005.5,N
1667894215.8,286047003.2,N
1667894235.7,286047003.2,N
1667894255.5,286047006.0,Y
1667894275.3,286047000.3,P
1667894295.2,286047000.7,N
1667894315.0,286046998.5,N
1667894315.9,286046998.5,N
1667894335.8,286047001.1,N
1667894355.6,286046998.3,N
1667894375.4,286046998.8,N
1667894395.3,286046998.3,N
